This is the latest recevied weather packets stored in our database for station/object SAVIL. If no packets are shown the sender has not sent any weather packets the latest 10 day(s).
| Time | Temp. | Humidity | Pressure | Rain* | Wind** | Luminosity | Snow |
|---|---|---|---|---|---|---|---|
| 1777247193 | 1.11° C | 68% | 1008.8 hPa | 0 mm | - | - | - |
| 1777245993 | 1.11° C | 68% | 1008.7 hPa | 0 mm | - | - | - |
| 1777244792 | 1.67° C | 67% | 1008.6 hPa | 0 mm | - | - | - |
| 1777243592 | 1.67° C | 67% | 1008.5 hPa | 0 mm | - | - | - |
| 1777242392 | 1.67° C | 68% | 1008.4 hPa | 0 mm | - | - | - |
| 1777241192 | 1.67° C | 68% | 1008.3 hPa | 0 mm | - | - | - |
| 1777239992 | 2.22° C | 65% | 1008.1 hPa | 0 mm | - | - | - |
| 1777238792 | 2.22° C | 66% | 1008 hPa | 0 mm | - | - | - |
| 1777237592 | 2.22° C | 65% | 1007.8 hPa | 0 mm | - | - | - |
| 1777236392 | 2.78° C | 65% | 1007.6 hPa | 0 mm | - | - | - |
| 1777235192 | 2.78° C | 62% | 1007.4 hPa | 0 mm | - | - | - |
| 1777233992 | 3.33° C | 62% | 1007.3 hPa | 0 mm | - | - | - |
| 1777232792 | 3.33° C | 60% | 1007.2 hPa | 0 mm | - | - | - |
| 1777231591 | 3.33° C | 64% | 1007 hPa | 0 mm | - | - | - |
| 1777230391 | 3.33° C | 66% | 1006.9 hPa | 0 mm | - | - | - |
| 1777229191 | 3.33° C | 63% | 1006.8 hPa | 0 mm | - | - | - |
| 1777227991 | 3.33° C | 58% | 1006.6 hPa | 0 mm | - | - | - |
| 1777226791 | 3.33° C | 62% | 1006.3 hPa | 0 mm | - | - | - |
| 1777225591 | 3.89° C | 59% | 1006 hPa | 0 mm | - | - | - |
| 1777224391 | 3.89° C | 58% | 1005.7 hPa | 0 mm | - | - | - |
| 1777223191 | 3.89° C | 57% | 1005.5 hPa | 0 mm | - | - | - |
| 1777221991 | 3.89° C | 56% | 1005.4 hPa | 0 mm | - | - | - |
| 1777220791 | 3.89° C | 60% | 1005.2 hPa | 0 mm | - | - | - |
| 1777219591 | 3.89° C | 59% | 1004.9 hPa | 0 mm | - | - | - |
| 1777218391 | 3.89° C | 55% | 1004.7 hPa | 0 mm | - | - | - |
* Rain latest hour (hover to see other rain measurements)
** Current wind speed in m/s (hover to see current wind gust speed)